Reflectivity
-20 -20 -20 -20 -20 -20 -20 -20 -20 -20 -20 -20 -20 -20 -20 -20 -20 -20 -20 -20 -20 -20 -20 -20 -20 -20 -20 -20 -20 -20 -20 -20
-20 -20 -20 -20 -20 -20 -20 -20 -20 -20 -20 -20 -20 -20 -20 -20 -20 -20 -20 -20 -20 -20 -20 -20 -20 -20 -20 -20 -20 -20 -20 -20
-20 -20 -20 -20 -20 -20 -20 -20 -20 -20 -20 -20 -20 -20 -20 -20 -20 -20 -20 -20 -20 -20 -20 -20 -20 -20 -20 -20 -20 -20 -20 -20
-20 -20 -20 -20 -20 -19 -20 11 -20 -20 -20 -20 -20 -20 -20 -20 -20 -20 -20 -20 -20 -20 -20 -20 -20 -20 -20 -20 -20 -20 -20 -20
-20 -20 -20 -20 4 9 -20 -9 -20 -20 -20 -20 -20 -20 -20 -20 -20 -20 -20 -20 -20 -20 -20 -20 -20 -20 -20 -20 -20 -20 -20 -20
-20 -20 -20 -20 6 -17 -16 -20 -20 -20 -20 -20 -20 -20 -20 -20 -20 -20 -20 -20 -20 -20 -20 -20 -20 -20 -20 -20 -20 -20 -20 -20
-20 -20 -20 -20 2 -19 -20 -20 -20 -20 -20 -20 -20 -20 -20 -20 -20 -20 -20 -20 -20 -20 -20 -20 -20 -20 -20 -20 -20 -20 -20 -20
-20 -20 -20 -10 -10 -20 -20 -20 -20 -20 -20 -20 -20 -20 -20 -20 -20 -20 -20 -20 -20 -20 -20 -20 -20 -20 -20 -20 -20 -20 -20 -20
-20 -20 -20 -20 -20 -20 -20 -20 -20 -20 -20 -20 -20 -20 -20 -20 -20 -20 -20 -14 -20 -20 -20 -20 -20 -20 -20 -20 -20 -20 -20 -20
-20 -20 -20 -20 -20 -20 -20 -20 -20 -20 -20 -20 -20 -20 -20 -20 -20 -20 -20 -20 -20 -20 -20 -20 -20 -20 -20 -20 -20 -20 -20 -20
-20 -20 -20 -20 -20 -20 -20 -20 -20 -20 -20 -20 -20 -20 -20 -20 -20 -20 -20 -20 -20 -20 -20 -20 -20 -20 -12 -20 -20 -19 -19 -20
-20 -20 -20 -20 -20 -20 -20 -20 -20 -20 -20 -20 -20 -20 -20 -18 -20 -20 -20 -20 -20 -20 -20 -20 -20 -20 -20 -20 -20 -20 -20 -20
-20 -20 -20 -20 -20 -20 -20 -20 -20 -20 -20 -20 -20 -20 -18 12 -20 -20 -20 -20 -20 -20 -20 -20 -20 -20 -20 -20 -20 -20 -20 -20
-20 -20 -20 -20 -20 -20 -20 -20 -20 -20 -20 -20 -20 -20 -17 9 12 -20 -20 -20 -20 -20 -20 -20 -20 -20 -20 -20 -20 -20 -20 -20
-20 -20 -20 -20 -20 -20 -20 -20 -20 -20 -20 -20 -20 -20 -20 -12 -17 -20 -20 -20 -20 -20 -20 -20 -20 -20 -20 -20 -20 -20 -20 -20
-20 -20 -20 -20 -20 -20 -20 -20 -20 -20 -20 -20 1 3 -19 -12 -6 -20 4 -8 -20 -20 -20 -20 -20 -20 -16 -20 -20 -20 -20 -20
-20 -20 13 -20 -20 -20 -20 -20 -20 -20 -20 -17 1 -9 -10 -20 -19 11 -6 -20 -20 -20 -20 -20 -20 3 -17 -0 -14 -20 -20 -20
-20 -20 -20 -20 -20 -20 -20 -20 -20 -20 -20 -14 1 -20 -16 16 4 6 9 11 -13 -10 -20 -17 -14 -20 -13 -20 -20 -20 -20 -20
-20 -20 -20 -20 -20 -20 -20 -20 -20 -20 -20 -5 -20 13 5 18 5 14 -15 -11 -11 -19 -18 -14 -19 -16 -20 -20 -20 -20 -20 -20
Wind_Speed
14 13 13 16 15 12 11 8 9 7 5 5 5 4 4 4 5 5 6 5 7 6 3 3 2 3 4 4 4 3 3 3
12 11 11 14 15 13 12 11 9 8 7 7 5 5 5 6 5 6 7 5 5 3 5 5 5 5 4 5 4 4 4 4
12 10 13 14 15 13 12 12 10 7 5 4 3 6 5 6 5 5 6 6 6 5 4 4 5 4 5 4 5 4 2 4
12 11 8 8 11 12 11 7 10 5 9 6 4 6 4 4 4 4 4 5 5 5 5 4 4 3 3 4 4 5 3 4
13 11 11 8 7 8 10 11 11 6 4 6 7 4 6 4 5 5 5 7 7 7 6 6 6 5 5 4 4 2 3 3
15 15 10 6 8 8 7 11 9 6 6 7 6 7 5 5 5 5 5 5 5 5 6 7 6 4 5 5 5 6 5 5
14 16 15 14 11 9 9 11 8 7 8 9 9 8 7 6 3 3 4 3 3 5 6 5 5 5 5 4 7 7 5 4
15 19 16 13 12 10 9 11 10 9 9 9 8 8 7 8 3 3 2 3 3 4 4 4 4 5 6 5 4 3 3 2
11 14 13 12 11 10 10 12 12 11 9 8 7 7 4 5 4 3 1 1 2 4 3 5 6 5 2 4 3 3 4 4
14 14 13 14 13 12 10 12 13 12 9 7 7 6 6 5 5 3 3 2 3 4 4 6 6 1 1 1 4 5 2 2
11 12 12 13 13 12 9 11 13 12 10 7 7 7 6 6 4 4 2 1 3 4 5 5 6 5 5 5 4 3 4 2
13 12 13 13 13 12 10 10 13 11 10 8 8 7 6 5 5 4 2 1 4 5 5 5 5 6 6 5 5 5 2 3
14 13 12 12 12 12 12 9 11 11 8 8 6 7 6 5 4 4 2 2 3 4 5 5 6 5 5 6 6 5 6 7
14 14 13 11 10 10 11 9 10 9 10 8 8 7 4 5 3 2 1 2 3 4 5 6 4 4 4 6 6 2 3 4
13 13 13 12 10 11 10 9 6 8 8 8 9 7 6 4 3 1 1 2 3 5 6 6 3 3 5 6 5 7 5 4
12 11 11 12 12 11 11 9 8 6 5 8 5 6 5 3 2 3 3 1 4 6 6 6 3 1 3 5 5 5 6 6
5 5 8 11 12 12 11 10 9 8 7 5 2 5 3 4 4 3 4 6 6 5 5 5 4 3 10 9 4 3 5 6
6 3 5 7 10 11 11 9 9 7 6 4 4 5 5 3 6 6 6 6 6 5 6 4 3 8 11 10 6 0 5 5
4 3 4 6 7 9 10 10 10 7 5 3 6 1 4 8 5 6 6 5 5 4 5 5 2 7 11 10 6 2 6 5
Wind_Direction
151 163 154 141 139 151 142 139 125 172 171 115 141 138 138 103 77 74 32 77 52 27 61 88 229 321 9 6 342 305 284 339
151 168 154 139 143 154 157 149 163 202 152 147 156 146 108 97 84 71 63 26 66 48 34 8 355 11 1 339 306 333 335 332
163 178 158 155 153 157 163 161 184 210 132 95 78 102 82 104 117 115 89 60 33 25 21 353 5 349 329 330 351 319 323 5
171 175 162 156 152 147 166 165 185 97 107 101 90 100 132 149 126 105 63 65 27 9 7 0 341 316 328 329 322 309 10 353
167 179 179 140 144 154 165 169 104 104 125 87 85 79 90 80 65 61 28 44 25 8 10 21 3 344 333 313 332 359 357 339
168 178 133 137 151 166 139 110 112 123 94 112 97 100 104 83 61 43 43 22 29 18 20 14 343 328 310 312 311 30 39 30
171 142 157 177 170 126 118 122 129 110 90 79 84 84 84 76 69 48 41 356 6 19 23 334 326 312 315 21 55 54 38 21
171 159 175 147 131 122 130 138 133 122 115 111 109 109 111 113 90 87 15 14 357 12 347 336 326 323 54 39 44 15 34 320
165 162 140 145 141 150 169 149 149 138 131 129 129 132 124 116 118 94 73 35 331 327 343 324 308 45 11 37 19 313 263 250
178 163 155 154 166 173 174 165 154 147 148 136 133 131 106 129 139 113 80 20 306 351 339 313 309 244 193 220 242 248 271 316
184 171 164 164 171 171 176 177 157 157 146 149 158 142 156 148 142 126 91 311 317 311 316 314 321 309 222 240 267 292 299 258
187 185 177 170 168 171 183 187 159 160 153 178 158 159 157 170 161 141 124 317 299 317 315 313 308 306 312 330 318 302 272 286
191 191 187 171 168 177 185 187 171 162 174 170 166 165 178 181 173 140 151 272 304 313 305 298 284 293 7 343 328 328 6 21
195 190 182 176 179 183 182 193 179 170 187 166 180 184 193 184 167 157 222 291 328 303 301 283 295 352 329 273 267 0 4 256
204 195 179 174 179 182 190 190 172 186 176 196 198 185 180 161 136 203 259 294 323 296 278 277 319 306 316 326 17 20 344 329
212 200 177 167 180 186 189 179 184 169 200 219 195 145 137 136 196 218 254 225 270 258 266 268 251 310 305 52 28 0 344 325
238 199 171 180 185 186 187 186 180 167 206 233 144 115 136 78 9 278 260 237 245 259 279 282 269 194 142 116 92 10 310 304
299 253 195 191 191 182 188 180 156 174 189 184 174 88 58 251 245 249 248 243 240 245 253 272 267 120 144 130 116 345 298 296
302 260 218 202 191 181 176 176 161 170 174 130 73 78 266 242 237 250 263 259 246 248 247 258 231 133 156 143 141 261 272 311